{"data":{"norad_id":67535,"intl_designator":"2026-014D","name":"STARLINK-36574","alt_names":[],"object_type":"PAYLOAD","status":"ACTIVE","operator":null,"country":"US","launch_date":"2026-01-22","launch_site_code":"AFWTR","launch_vehicle":null,"mission":null,"orbit_class":"UNKNOWN","rcs_meters":null,"size_class":null,"mass_kg":null,"dimensions":null,"purposes":["comms"],"wikipedia_slug":null,"has_3d_model":false,"image_url":null,"decayed_at":null,"tle_current":{"epoch":"2026-09-19T10:02:52.940256Z","epoch_age_seconds":165722,"freshness":"FRESH","line1":"1 67535U 26014D   26262.41866829  .00017828  00000+0  55307-3 0  9999","line2":"2 67535  97.2849 147.8164 0001483  95.4622 264.6790 15.33455398 38474","mean_motion":15.33455398,"eccentricity":0.0001483,"inclination_deg":97.2849,"raan_deg":147.8164,"arg_perigee_deg":95.4622,"mean_anomaly_deg":264.679,"bstar":0.00055307,"rev_number":3847,"period_min":93.905567900971,"perigee_km":464.49732433864,"apogee_km":466.52715070249,"semimajor_km":6843.6492375206,"source":"CELESTRAK","updated_at":"2026-09-20T09:00:43.566300Z"}}}